Meteo Giornale » Osservazioni meteo Gran Bretagna » Newcastle

ore: 11:50 - Osservazioni Meteo Newcastle
Lat. 55° 2' N Lon. 1° 42' W Alt. 81 metri s.l.m.

poco_nuvoloso Europe/London

7 °C

Poco Nuvoloso

Temp. 24 Ore

0 °C

7 °C

Ovest

35.2 Km/h

Dew point 4 °C

Umidità 81 %

Visibilità  10 Km

Il sole sorge alle ore 08:10

Il sole tramonta alle ore 16:26

Data e Ora Cielo e Fenomeni T °C DP °C Um. % Pres. hPa Vis. km Vento km/h
Oggi h: 11:50 poco_nuvoloso Poco Nuvoloso 7 4 81 1005 10 O 35.2
Oggi h: 11:20 poco_nuvoloso Poco Nuvoloso 6 4 86 1005 10 O 27.8
Oggi h: 10:50 poco_nuvoloso Poco Nuvoloso 6 4 86 1004 10 O 33.3
Oggi h: 10:20 poco_nuvoloso Poco Nuvoloso 6 4 86 1004 10 O 25.9
Oggi h: 09:50 poco_nuvoloso Poco Nuvoloso 6 4 86 1004 10 O 25.9
Oggi h: 09:20 poco_nuvoloso Poco Nuvoloso 5 3 86 1003 10 O 25.9
Oggi h: 08:50 poco_nuvoloso Poco Nuvoloso 5 4 93 1003 10 O 27.8
Oggi h: 08:20 poco_nuvoloso Poco Nuvoloso 5 3 86 1002 10 O 25.9
Oggi h: 07:50 poco_nuvoloso Poco Nuvoloso 5 3 86 1002 10 O 25.9
Oggi h: 07:20 poco_nuvoloso Poco Nuvoloso 5 3 86 1002 10 O 22.2
Oggi h: 06:50 poco_nuvoloso Poco Nuvoloso 5 3 86 1002 10 O 24
Oggi h: 06:20 poco_nuvoloso Poco Nuvoloso 5 3 86 1001 10 O 20.3
Oggi h: 05:50 poco_nuvoloso Poco Nuvoloso 5 3 86 1001 10 O 20.3
Oggi h: 05:20 poco_nuvoloso Poco Nuvoloso 5 3 86 1001 10 O 24
Oggi h: 04:50 poco_nuvoloso Poco Nuvoloso 5 3 86 1001 10 O 20.3
Oggi h: 03:50 poco_nuvoloso Poco Nuvoloso 5 3 86 1001 10 O 14.8
Oggi h: 02:50 poco_nuvoloso Poco Nuvoloso 5 3 86 1000 10 O 18.5
Oggi h: 02:20 poco_nuvoloso Poco Nuvoloso 5 4 93 1000 10 O 22.2
Oggi h: 01:50 poco_nuvoloso Poco Nuvoloso 5 4 93 1000 10 O 27.8
Oggi h: 01:20 poco_nuvoloso Poco Nuvoloso 5 4 93 1000 10 O 22.2
Oggi h: 00:50 poco_nuvoloso Poco Nuvoloso 5 4 93 1000 10 O 16.7
Oggi h: 00:20 poco_nuvoloso Poco Nuvoloso 4 4 100 999 10 O 27.8
Ieri h: 23:50 poco_nuvoloso Poco Nuvoloso 4 3 93 999 10 O 33.3
Ieri h: 23:20 nuvoloso Nuvoloso 3 3 100 999 10 O 31.5
Ieri h: 22:50 nuvoloso Nuvoloso 3 3 100 999 10 O 31.5
Ieri h: 22:20 coperto_pioggia Pioggia Debole 3 2 93 1000 10 O 14.8
Ieri h: 21:50 coperto_pioggia Pioggia Debole 2 2 100 999 10 SO 7.4
Ieri h: 21:20 coperto_pioggia Pioggia Debole 1 1 100 999 9 N 5.5
Ieri h: 20:50 coperto_pioggia Pioggia Debole 1 1 100 999 7 S 11.1
Ieri h: 20:20 coperto_pioggia Pioggia Debole 1 1 100 999 9 S 13
Ieri h: 19:50 molto_nuvoloso Molto Nuvoloso 1 0 93 999 9 S 11.1
Ieri h: 19:20 molto_nuvoloso Rovescio nelle Vicinanze 1 0 93 999 9 S 13
Ieri h: 18:50 molto_nuvoloso Rovescio nelle Vicinanze 1 0 93 1000 9 S 16.7
Ieri h: 18:20 molto_nuvoloso Rovescio nelle Vicinanze 1 0 93 1000 9 S 18.5
Ieri h: 17:50 molto_nuvoloso Molto Nuvoloso 0 0 100 1001 10 S 18.5
Ieri h: 17:20 molto_nuvoloso Molto Nuvoloso 0 0 100 1001 10 S 16.7
Ieri h: 16:50 molto_nuvoloso Molto Nuvoloso 0 0 100 1002 10 S 20.3
Ieri h: 16:20 molto_nuvoloso Molto Nuvoloso 0 0 100 1002 10 S/SE 13
Ieri h: 15:50 coperto_neve Neve Debole 0 0 100 1002 3 S/SE 20.3
Ieri h: 15:20 coperto_neve Neve Debole 0 0 100 1005 1 S/SE 9.3
Ieri h: 14:50 coperto_neve Neve Debole 0 0 100 1005 0.9 S/SE 11.1
Ieri h: 14:20 coperto_neve Neve 1 -0 93 1006 2 S 11.1
Ieri h: 13:50 coperto_neve Neve Debole 1 -0 93 1006 7 S 13
Ieri h: 13:20 nuvoloso_neve Debole Rovescio di Neve 1 -0 93 1006 8 S 14.8
Ieri h: 12:50 poco_nuvoloso Poco Nuvoloso 1 -1 86 1007 10 S/SE 9.3
Ieri h: 12:20 sereno Sereno 1 -2 80 1008 10 S/SE 9.3
Ieri h: 11:50 sereno Sereno 1 -2 80 1009 10 SE 7.4